Content
SEND FEEDBACK

Daily
Averages
Monthly
Summary
Switzerland

PAYERNE, SWITZERLAND


Home > Europe > Switzerland
Elevation: 1463 feet     Latitude: 46 50N     Longitude: 006 55E

WEATHER
 
SELECT A DAY
Number of Records: 86,764;   Date Range: 12/15/98 - 7/29/14
 
SHARE

PRINT THIS DATA

[ ← Previous Day ]
WEATHER ALMANAC - JULY 3, 2013
[ Next Day → ]
[ °C ]   °F
Weather ElementAverageHighLow
Temperature55.6 °F57.2 °F (12:50 am)53.6 °F (2:20 am)
Dewpoint53.5 °F55.4 °F (11:50 am)48.2 °F (1:20 am)
Humidity93 %100 % (9:20 am)72 % (1:20 am)
Barometer30.03 in30.12 in (10:20 pm)29.98 in (3:50 am)
Wind Speed7.6 mph13.8 mph (1:20 pm)
Weather ElementAverage
Visibility5.1 mi
Wind DirectionSSW (207.7 °)

Weather ElementTotal
Precipitation---
Heating Degree Days9.6 (Base 65)
Growing Degree Days5.4 (Base 50)
Averaged from 47 records on July 3, 2013
WEATHER CONDITIONS BREAKOUT
WIND DIRECTION BREAKOUT
WEATHER BY HOUR - JULY 3, 2013
[ °C ]   °F
Local TimeTemperatureDewpointHumidityBarometerVisibilityWind DirectionWind SpeedGust SpeedPrecipitationEventsConditions
12:50 AM57.2 °F50.0 °F77 %30.04 inWest (260°)4.6 mphClear
1:20 AM57.2 °F48.2 °F72 %30.04 in6.2 miSSW (210°)9.2 mphRainLight Rain
1:50 AM55.4 °F50.0 °F82 %30.04 in3.7 miVariable3.5 mphRainRain
2:20 AM53.6 °F51.8 °F94 %30.04 inVariable1.2 mphClear
2:50 AM53.6 °F51.8 °F94 %30.01 inVariable1.2 mphClear
3:20 AM53.6 °F51.8 °F94 %30.01 inVariable2.3 mphClear
3:50 AM55.4 °F50.0 °F82 %29.98 in6.2 miSW (230°)4.6 mphRainLight Rain
4:20 AM55.4 °F50.0 °F82 %29.98 in6.2 miWest (280°)4.6 mphRainLight Rain
4:50 AM55.4 °F50.0 °F82 %29.98 in6.2 miWest (270°)4.6 mphRainLight Rain
5:20 AM53.6 °F51.8 °F94 %29.98 in6.2 miSW (230°)6.9 mphRainLight Rain
5:50 AM53.6 °F51.8 °F94 %29.98 in6.2 miWSW (240°)5.8 mphRainLight Rain
6:20 AM53.6 °F51.8 °F94 %29.98 in6.2 miSW (230°)10.4 mphRainRain
6:50 AM53.6 °F51.8 °F94 %29.98 in6.2 miSW (230°)9.2 mphRainRain
7:20 AM53.6 °F51.8 °F94 %29.98 in6.2 miSW (220°)8.1 mphRainRain
7:50 AM53.6 °F51.8 °F94 %29.98 in4.3 miSW (230°)9.2 mphRainRain
8:20 AM53.6 °F51.8 °F94 %29.98 in4.3 miSW (220°)8.1 mphRainRain
8:50 AM53.6 °F51.8 °F94 %29.98 inSW (230°)6.9 mphRainRain
9:20 AM53.6 °F53.6 °F100 %29.98 in3.1 miSW (220°)4.6 mphRainLight Rain
9:50 AM55.4 °F53.6 °F94 %30.01 in5.0 miSW (220°)5.8 mphLight Drizzle
10:20 AM55.4 °F53.6 °F94 %30.01 in5.0 miWSW (240°)9.2 mphLight Drizzle
10:50 AM55.4 °F53.6 °F94 %30.01 in3.7 miSW (230°)8.1 mphRainLight Rain
11:20 AM55.4 °F53.6 °F94 %30.01 in5.0 miWSW (240°)9.2 mphRainLight Rain
11:50 AM55.4 °F55.4 °F100 %30.01 in5.0 miSW (230°)6.9 mphRainLight Rain
12:20 PM57.2 °F53.6 °F88 %30.01 in5.0 miWSW (240°)10.4 mphRainLight Rain
12:50 PM55.4 °F53.6 °F94 %30.01 in6.2 miWSW (240°)9.2 mphRainLight Rain
1:20 PM57.2 °F55.4 °F94 %30.01 in5.0 miWSW (240°)13.8 mphRainLight Rain
1:50 PM57.2 °F55.4 °F94 %30.01 in5.0 miWSW (240°)11.5 mphRainLight Rain
2:20 PM57.2 °F55.4 °F94 %30.01 in3.7 miWSW (250°)11.5 mphLight Drizzle
2:50 PM57.2 °F55.4 °F94 %30.04 in6.2 miWSW (240°)11.5 mphRainLight Rain
3:20 PM57.2 °F55.4 °F94 %30.04 in5.0 miWSW (240°)11.5 mphRainLight Rain
3:50 PM55.4 °F55.4 °F100 %30.04 in3.7 miWSW (250°)12.7 mphRainRain
4:20 PM55.4 °F55.4 °F100 %30.04 in3.7 miWSW (240°)9.2 mphRainRain
4:50 PM57.2 °F55.4 °F94 %30.04 in3.7 miWSW (240°)10.4 mphRainRain
5:20 PM57.2 °F55.4 °F94 %30.04 in3.7 miWSW (240°)11.5 mphRainRain
5:50 PM55.4 °F55.4 °F100 %30.04 in3.7 miWSW (240°)12.7 mphRainRain
6:20 PM55.4 °F55.4 °F100 %30.04 in3.7 miWSW (240°)10.4 mphRainRain
6:50 PM55.4 °F55.4 °F100 %30.06 in3.7 miSW (230°)8.1 mphRainRain
7:20 PM57.2 °F55.4 °F94 %30.06 in5.0 miWSW (240°)6.9 mphRainLight Rain
7:50 PM57.2 °F55.4 °F94 %30.06 in6.2 miWSW (240°)8.1 mphRainLight Rain
8:20 PM57.2 °F55.4 °F94 %30.06 in6.2 miWSW (250°)8.1 mphMostly Cloudy
8:50 PM57.2 °F55.4 °F94 %30.09 in6.2 miSW (230°)6.9 mphMostly Cloudy
9:20 PM57.2 °F55.4 °F94 %30.09 in6.2 miWSW (250°)5.8 mphRainLight Rain
9:50 PM57.2 °F55.4 °F94 %30.09 in6.2 miWSW (240°)6.9 mphMostly Cloudy
10:20 PM57.2 °F53.6 °F88 %30.12 in6.2 miVariable2.3 mphMostly Cloudy
10:50 PM55.4 °F53.6 °F94 %30.12 in6.2 miWSW (250°)4.6 mphMostly Cloudy
11:20 PM55.4 °F55.4 °F100 %30.12 in6.2 miSW (230°)5.8 mphScattered Clouds
11:50 PM55.4 °F55.4 °F100 %30.12 in2.5 miVariable2.3 mphDrizzle
Hourly data recorded from LSGC, located miles away from Payerne, Switzerland







STORIES FROM OUR PARTNERS